FW3232 Weather Reports


Display with metric or nautical units.
time (UTC)temp
F
wind
direction
speed
MPH
gust
MPH
rain 1hr
in
rain 24hr
in
rain mn
in
humidity
%
barometer
mb
20260831021937 83 360 0.0 2.0 0.00 0.00 0.00 56 1013.5
20260831021437 83 314 0.0 2.0 0.00 0.00 0.00 55 1013.5
20260831020938 83 344 0.0 2.0 0.00 0.00 0.00 55 1013.5
20260831020437 83 336 1.0 3.0 0.00 0.00 0.00 54 1013.5
20260831015937 83 332 1.0 4.0 0.00 0.00 0.00 54 1013.5
20260831015438 84 310 1.0 2.0 0.00 0.00 0.00 55 1013.5
20260831014938 84 312 0.0 2.0 0.00 0.00 0.00 53 1013.5
20260831014437 85 285 1.0 2.0 0.00 0.00 0.00 53 1013.5
20260831013937 85 319 2.0 2.0 0.00 0.00 0.00 51 1013.5
20260831013437 86 271 0.0 3.0 0.00 0.00 0.00 51 1013.5
20260831012939 86 184 0.0 3.0 0.00 0.00 0.00 50 1013.5
20260831012437 87 115 0.0 2.0 0.00 0.00 0.00 51 1013.5
20260831011937 87 305 2.0 2.0 0.00 0.00 0.00 49 1013.5
20260831011437 88 360 0.0 4.0 0.00 0.00 0.00 48 1013.5
20260831010937 89 211 2.0 4.0 0.00 0.00 0.00 46 1013.5
20260831010438 90 189 2.0 4.0 0.00 0.00 0.00 45 1013.5
20260831005939 90 204 2.0 4.0 0.00 0.00 0.00 45 1013.5
20260831005437 91 136 3.0 8.0 0.00 0.00 0.00 44 1013.5
20260831004937 91 137 5.0 9.0 0.00 0.00 0.00 43 1013.5
20260831004437 91 129 4.0 11.0 0.00 0.00 0.00 43 1013.5
20260831003937 92 160 4.0 7.0 0.00 0.00 0.00 42 1013.5
20260831003437 92 152 5.0 8.0 0.00 0.00 0.00 42 1013.5
20260831002937 92 145 5.0 11.0 0.00 0.00 0.00 41 1013.5
20260831002440 93 168 6.0 10.0 0.00 0.00 0.00 40 1013.5
20260831001937 93 166 6.0 13.0 0.00 0.00 0.00 39 1013.5
20260831001437 94 151 3.0 5.0 0.00 0.00 0.00 38 1013.5
20260831000937 94 180 3.0 4.0 0.00 0.00 0.00 37 1013.5
20260831000443 94 156 3.0 5.0 0.00 0.00 0.00 36 1013.5
20260830235937 94 138 3.0 6.0 0.00 0.00 0.00 36 1013.5
20260830235437 95 196 2.0 7.0 0.00 0.00 0.00 35 1013.5
20260830234937 95 148 3.0 6.0 0.00 0.00 0.00 35 1013.5
20260830234438 94 132 3.0 6.0 0.00 0.00 0.00 35 1013.5
20260830233938 94 170 2.0 7.0 0.00 0.00 0.00 36 1013.5
20260830233437 95 185 2.0 7.0 0.00 0.00 0.00 36 1013.5
20260830232937 95 153 4.0 7.0 0.00 0.00 0.00 36 1013.5
20260830232437 95 193 3.0 7.0 0.00 0.00 0.00 35 1013.5
20260830231937 96 115 3.0 6.0 0.00 0.00 0.00 35 1013.5
20260830231438 96 149 3.0 6.0 0.00 0.00 0.00 34 1013.5
20260830230937 97 140 3.0 7.0 0.00 0.00 0.00 33 1013.5
20260830230439 97 138 4.0 9.0 0.00 0.00 0.00 33 1013.5
20260830225937 97 162 4.0 8.0 0.00 0.00 0.00 33 1013.5
20260830225437 97 137 5.0 9.0 0.00 0.00 0.00 33 1013.5
20260830224937 98 130 3.0 9.0 0.00 0.00 0.00 32 1013.5
20260830224437 98 161 5.0 9.0 0.00 0.00 0.00 33 1013.5
20260830223938 97 145 6.0 11.0 0.00 0.00 0.00 33 1013.5
20260830223437 98 167 4.0 12.0 0.00 0.00 0.00 33 1013.5
20260830222937 98 145 6.0 11.0 0.00 0.00 0.00 33 1013.5
20260830222437 98 172 6.0 11.0 0.00 0.00 0.00 32 1013.5
20260830221937 97 154 6.0 10.0 0.00 0.00 0.00 32 1013.5
20260830221437 98 133 5.0 9.0 0.00 0.00 0.00 32 1013.5
20260830220937 98 220 2.0 5.0 0.00 0.00 0.00 31 1013.5
20260830220439 99 200 2.0 8.0 0.00 0.00 0.00 31 1013.5
20260830215937 100 138 3.0 6.0 0.00 0.00 0.00 30 1013.5
20260830215437 100 146 3.0 9.0 0.00 0.00 0.00 30 1013.5
20260830214940 100 166 3.0 6.0 0.00 0.00 0.00 31 1013.5
20260830214438 100 134 3.0 7.0 0.00 0.00 0.00 30 1013.5
20260830213938 101 17 4.0 8.0 0.00 0.00 0.00 30 1013.5
20260830213437 100 64 2.0 9.0 0.00 0.00 0.00 31 1013.5
20260830212937 100 16 4.0 9.0 0.00 0.00 0.00 31 1013.5
20260830212437 100 168 3.0 11.0 0.00 0.00 0.00 30 1013.5
20260830211937 100 350 6.0 11.0 0.00 0.00 0.00 30 1013.5
20260830211437 101 340 5.0 13.0 0.00 0.00 0.00 30 1013.5
20260830210937 101 2 5.0 9.0 0.00 0.00 0.00 30 1013.5
20260830210437 101 203 4.0 8.0 0.00 0.00 0.00 30 1013.5
20260830205937 101 47 3.0 8.0 0.00 0.00 0.00 30 1013.5
20260830205437 100 89 2.0 8.0 0.00 0.00 0.00 30 1013.5
20260830204937 100 173 6.0 8.0 0.00 0.00 0.00 30 1013.5
20260830204437 100 168 4.0 10.0 0.00 0.00 0.00 31 1013.5
20260830203937 100 342 5.0 8.0 0.00 0.00 0.00 31 1013.5
20260830203437 101 316 4.0 11.0 0.00 0.00 0.00 30 1013.5
20260830202938 100 355 5.0 11.0 0.00 0.00 0.00 31 1013.5
20260830202437 100 348 6.0 10.0 0.00 0.00 0.00 31 1013.5
20260830201939 100 332 5.0 11.0 0.00 0.00 0.00 31 1013.5
20260830201438 100 327 6.0 10.0 0.00 0.00 0.00 31 1013.5
20260830200937 100 280 4.0 12.0 0.00 0.00 0.00 31 1013.5
20260830200437 99 358 8.0 12.0 0.00 0.00 0.00 31 1013.5
20260830195937 99 291 4.0 9.0 0.00 0.00 0.00 32 1013.5
20260830195437 99 203 4.0 11.0 0.00 0.00 0.00 32 1013.5
20260830194937 100 105 5.0 13.0 0.00 0.00 0.00 31 1013.5
20260830194437 100 329 3.0 9.0 0.00 0.00 0.00 30 1013.5
20260830193937 99 143 5.0 9.0 0.00 0.00 0.00 31 1013.5
20260830193437 99 232 3.0 9.0 0.00 0.00 0.00 32 1013.5
20260830192940 99 104 5.0 11.0 0.00 0.00 0.00 31 1013.5
20260830192437 98 358 4.0 13.0 0.00 0.00 0.00 32 1013.5
20260830191938 98 157 6.0 12.0 0.00 0.00 0.00 33 1013.5
20260830191437 98 154 5.0 11.0 0.00 0.00 0.00 33 1013.5
20260830190938 98 286 4.0 9.0 0.00 0.00 0.00 33 1013.5
20260830190437 98 350 6.0 9.0 0.00 0.00 0.00 34 1013.5
20260830185937 97 151 3.0 12.0 0.00 0.00 0.00 34 1013.5
20260830185437 97 327 6.0 10.0 0.00 0.00 0.00 35 1013.5
20260830184937 97 207 5.0 10.0 0.00 0.00 0.00 35 1013.5
20260830184437 97 76 3.0 10.0 0.00 0.00 0.00 35 1013.5
20260830183937 97 197 4.0 11.0 0.00 0.00 0.00 36 1013.5
20260830183437 96 211 3.0 9.0 0.00 0.00 0.00 36 1013.5
20260830182937 96 265 3.0 9.0 0.00 0.00 0.00 37 1013.5
20260830182437 97 154 6.0 8.0 0.00 0.00 0.00 35 1013.5
20260830181937 97 226 4.0 9.0 0.00 0.00 0.00 35 1013.5
20260830181437 97 193 4.0 9.0 0.00 0.00 0.00 34 1013.5
20260830180937 97 234 2.0 8.0 0.00 0.00 0.00 35 1013.5
20260830180438 97 33 2.0 8.0 0.00 0.00 0.00 35 1013.5
20260830175937 97 198 4.0 9.0 0.00 0.00 0.00 35 1013.5
20260830175437 97 330 4.0 9.0 0.00 0.00 0.00 35 1013.5
20260830174938 97 173 4.0 10.0 0.00 0.00 0.00 35 1013.5
20260830174437 97 275 2.0 10.0 0.00 0.00 0.00 34 1013.5
20260830173937 96 246 3.0 12.0 0.00 0.00 0.00 36 1013.5
20260830173437 96 186 8.0 11.0 0.00 0.00 0.00 36 1013.5
20260830172937 96 196 5.0 10.0 0.00 0.00 0.00 36 1013.5
20260830172437 96 292 7.0 12.0 0.00 0.00 0.00 36 1013.5
20260830171938 96 247 4.0 8.0 0.00 0.00 0.00 36 1013.5
20260830171438 95 344 5.0 10.0 0.00 0.00 0.00 37 1013.5
20260830170937 95 158 6.0 10.0 0.00 0.00 0.00 39 1013.5
20260830170438 94 199 4.0 14.0 0.00 0.00 0.00 40 1013.5
20260830165937 94 13 7.0 14.0 0.00 0.00 0.00 39 1013.5
20260830165437 95 137 6.0 9.0 0.00 0.00 0.00 39 1013.5
20260830164937 93 172 4.0 11.0 0.00 0.00 0.00 40 1013.5
20260830164437 93 325 7.0 11.0 0.00 0.00 0.00 40 1013.5
20260830163937 92 271 3.0 9.0 0.00 0.00 0.00 41 1013.5
20260830163437 93 174 5.0 11.0 0.00 0.00 0.00 42 1013.5
20260830162937 93 186 3.0 9.0 0.00 0.00 0.00 40 1013.5
20260830162437 93 328 6.0 10.0 0.00 0.00 0.00 40 1013.5
20260830161937 93 242 3.0 9.0 0.00 0.00 0.00 41 1013.5
20260830161438 92 334 5.0 10.0 0.00 0.00 0.00 40 1013.5
20260830160937 92 232 4.0 10.0 0.00 0.00 0.00 42 1013.5
20260830160437 91 188 6.0 9.0 0.00 0.00 0.00 42 1013.5
20260830155938 91 295 3.0 10.0 0.00 0.00 0.00 42 1013.5
20260830155438 90 296 2.0 9.0 0.00 0.00 0.00 44 1013.5
20260830154937 91 256 4.0 11.0 0.00 0.00 0.00 43 1013.5
20260830154437 90 226 4.0 11.0 0.00 0.00 0.00 43 1013.5
20260830153937 90 228 5.0 11.0 0.00 0.00 0.00 44 1013.5
20260830153437 90 288 4.0 8.0 0.00 0.00 0.00 45 1013.5
20260830152938 90 325 4.0 8.0 0.00 0.00 0.00 44 1013.5
20260830152437 89 293 5.0 9.0 0.00 0.00 0.00 46 1013.5
20260830151937 88 277 3.0 10.0 0.00 0.00 0.00 47 1013.5
20260830151438 88 318 5.0 9.0 0.00 0.00 0.00 47 1013.5
20260830150938 88 269 2.0 9.0 0.00 0.00 0.00 46 1013.5
20260830150437 87 257 4.0 8.0 0.00 0.00 0.00 48 1013.5
20260830145937 86 234 4.0 9.0 0.00 0.00 0.00 48 1013.5
20260830145437 85 271 4.0 8.0 0.00 0.00 0.00 49 1013.5
20260830144937 84 282 4.0 9.0 0.00 0.00 0.00 51 1013.5
20260830144437 84 237 4.0 8.0 0.00 0.00 0.00 50 1013.5
20260830143938 83 223 3.0 8.0 0.00 0.00 0.00 53 1013.5
20260830143437 83 253 3.0 8.0 0.00 0.00 0.00 53 1013.5
20260830142937 83 296 2.0 8.0 0.00 0.00 0.00 53 1013.5
20260830142437 82 227 3.0 8.0 0.00 0.00 0.00 53 1013.5
20260830141937 82 247 3.0 9.0 0.00 0.00 0.00 54 1013.5
20260830141438 81 258 4.0 9.0 0.00 0.00 0.00 55 1013.5
20260830140939 81 254 3.0 7.0 0.00 0.00 0.00 55 1013.5
20260830140437 80 286 4.0 9.0 0.00 0.00 0.00 57 1013.5
20260830135938 80 263 4.0 9.0 0.00 0.00 0.00 59 1013.5
20260830135438 79 245 4.0 8.0 0.00 0.00 0.00 58 1013.5
20260830134940 79 263 2.0 9.0 0.00 0.00 0.00 60 1013.5
20260830134437 78 309 2.0 9.0 0.00 0.00 0.00 60 1013.5
20260830133937 78 227 5.0 6.0 0.00 0.00 0.00 62 1013.5
20260830133437 78 228 3.0 6.0 0.00 0.00 0.00 63 1013.5
20260830132937 78 268 1.0 3.0 0.00 0.00 0.00 66 1013.5
20260830132437 77 228 1.0 4.0 0.00 0.00 0.00 68 1013.5
20260830131938 77 228 2.0 5.0 0.00 0.00 0.00 69 1013.5
20260830131437 76 246 2.0 4.0 0.00 0.00 0.00 69 1013.5
20260830130939 76 226 2.0 4.0 0.00 0.00 0.00 70 1013.5
20260830130439 76 213 3.0 4.0 0.00 0.00 0.00 70 1013.5
20260830125937 75 271 2.0 4.0 0.00 0.00 0.00 68 1013.5
20260830125437 74 247 2.0 4.0 0.00 0.00 0.00 70 1013.5
20260830124937 74 233 2.0 4.0 0.00 0.00 0.00 69 1013.5
20260830124437 73 288 2.0 5.0 0.00 0.00 0.00 72 1013.5
20260830123937 71 313 2.0 4.0 0.00 0.00 0.00 74 1013.5
20260830123438 70 305 2.0 4.0 0.00 0.00 0.00 75 1013.5
20260830122937 69 291 2.0 4.0 0.00 0.00 0.00 77 1013.5
20260830122439 68 269 1.0 4.0 0.00 0.00 0.00 80 1013.5
20260830121937 67 315 2.0 4.0 0.00 0.00 0.00 80 1013.5
20260830121438 66 321 2.0 4.0 0.00 0.00 0.00 81 1013.5
20260830120937 66 317 2.0 5.0 0.00 0.00 0.00 82 1013.5
20260830120437 66 323 3.0 4.0 0.00 0.00 0.00 82 1013.5
20260830115937 65 307 2.0 4.0 0.00 0.00 0.00 82 1013.5
20260830115447 65 310 2.0 5.0 0.00 0.00 0.00 83 1013.5
20260830114937 65 320 3.0 4.0 0.00 0.00 0.00 83 1013.5
20260830114437 65 315 3.0 5.0 0.00 0.00 0.00 82 1013.5
20260830113937 65 300 2.0 5.0 0.00 0.00 0.00 81 1013.5
20260830113437 65 314 2.0 5.0 0.00 0.00 0.00 82 1013.5
20260830112937 65 322 3.0 5.0 0.00 0.00 0.00 82 1013.5
20260830112437 65 314 3.0 4.0 0.00 0.00 0.00 82 1013.5
20260830111937 65 313 3.0 5.0 0.00 0.00 0.00 82 1013.5
20260830111437 65 315 2.0 4.0 0.00 0.00 0.00 82 1013.5
20260830110937 65 304 3.0 5.0 0.00 0.00 0.00 81 1013.5
20260830110437 65 317 3.0 5.0 0.00 0.00 0.00 82 1013.5
20260830105937 65 316 3.0 7.0 0.00 0.00 0.00 82 1013.5
20260830105441 65 313 4.0 9.0 0.00 0.00 0.00 82 1013.5
20260830104937 65 290 2.0 6.0 0.00 0.00 0.00 82 1013.5
20260830104437 65 320 3.0 4.0 0.00 0.00 0.00 82 1013.5
20260830103937 65 294 1.0 5.0 0.00 0.00 0.00 82 1013.5
20260830103439 65 313 2.0 5.0 0.00 0.00 0.00 82 1013.5
20260830102937 65 314 3.0 5.0 0.00 0.00 0.00 82 1013.5
20260830102437 65 301 2.0 5.0 0.00 0.00 0.00 82 1013.5
20260830101937 65 324 4.0 5.0 0.00 0.00 0.00 81 1013.5
20260830101437 66 317 3.0 4.0 0.00 0.00 0.00 81 1013.5
20260830100937 66 305 2.0 4.0 0.00 0.00 0.00 81 1013.5
20260830100437 66 315 2.0 5.0 0.00 0.00 0.00 81 1013.5
20260830095937 66 325 4.0 5.0 0.00 0.00 0.00 81 1013.5
20260830095437 66 298 2.0 5.0 0.00 0.00 0.00 81 1013.5
20260830094937 66 322 3.0 5.0 0.00 0.00 0.00 81 1013.5
20260830094437 66 313 3.0 5.0 0.00 0.00 0.00 80 1013.5
20260830093937 66 320 3.0 5.0 0.00 0.00 0.00 80 1013.5
20260830093437 66 323 4.0 5.0 0.00 0.00 0.00 80 1013.5
20260830092937 66 307 2.0 4.0 0.00 0.00 0.00 80 1013.5
20260830092437 66 299 1.0 5.0 0.00 0.00 0.00 80 1013.5
20260830091937 66 324 3.0 4.0 0.00 0.00 0.00 80 1013.5
20260830091437 66 317 3.0 4.0 0.00 0.00 0.00 81 1013.5
20260830090937 66 310 2.0 4.0 0.00 0.00 0.00 80 1013.5
20260830090437 67 244 2.0 4.0 0.00 0.00 0.00 79 1013.5
20260830085937 67 316 3.0 5.0 0.00 0.00 0.00 79 1013.5
20260830085437 67 320 4.0 5.0 0.00 0.00 0.00 78 1013.5
20260830084937 67 302 2.0 5.0 0.00 0.00 0.00 78 1013.5
20260830084437 67 318 3.0 4.0 0.00 0.00 0.00 78 1013.5
20260830083937 67 307 2.0 4.0 0.00 0.00 0.00 78 1013.5
20260830083437 67 314 3.0 5.0 0.00 0.00 0.00 78 1013.5
20260830082937 67 303 2.0 5.0 0.00 0.00 0.00 78 1013.5
20260830082437 67 308 3.0 5.0 0.00 0.00 0.00 77 1013.5
20260830081937 67 309 3.0 5.0 0.00 0.00 0.00 77 1013.5
20260830081437 67 300 1.0 4.0 0.00 0.00 0.00 76 1013.5
20260830080938 67 309 2.0 5.0 0.00 0.00 0.00 77 1013.5
20260830080437 67 310 2.0 4.0 0.00 0.00 0.00 77 1013.5
20260830075937 67 321 3.0 4.0 0.00 0.00 0.00 76 1013.5
20260830075438 68 310 2.0 4.0 0.00 0.00 0.00 76 1013.5
20260830074937 68 305 2.0 3.0 0.00 0.00 0.00 77 1013.5
20260830074437 68 308 1.0 4.0 0.00 0.00 0.00 75 1013.5
20260830073937 68 313 3.0 4.0 0.00 0.00 0.00 75 1013.5
20260830073439 68 322 3.0 4.0 0.00 0.00 0.00 75 1013.5
20260830072938 69 277 2.0 4.0 0.00 0.00 0.00 73 1013.5
20260830072437 69 328 4.0 4.0 0.00 0.00 0.00 73 1013.5
20260830071937 69 276 1.0 4.0 0.00 0.00 0.00 74 1013.5
20260830071437 69 306 2.0 5.0 0.00 0.00 0.00 73 1013.5
20260830070937 70 315 3.0 6.0 0.00 0.00 0.00 73 1013.5
20260830070438 70 290 2.0 4.0 0.00 0.00 0.00 73 1013.5
20260830065937 71 261 2.0 4.0 0.00 0.00 0.00 71 1013.5
20260830065437 71 297 1.0 5.0 0.00 0.00 0.00 70 1013.5
20260830064938 70 297 1.0 4.0 0.00 0.00 0.00 71 1013.5
20260830064437 70 312 2.0 5.0 0.00 0.00 0.00 71 1013.5
20260830063937 70 306 2.0 5.0 0.00 0.00 0.00 72 1013.5
20260830063437 69 311 3.0 6.0 0.00 0.00 0.00 74 1013.5
20260830062937 70 306 2.0 5.0 0.00 0.00 0.00 76 1013.5
20260830062437 70 292 2.0 4.0 0.00 0.00 0.00 76 1013.5
20260830061937 71 238 2.0 4.0 0.00 0.00 0.00 75 1013.5
20260830061437 71 303 1.0 5.0 0.00 0.00 0.00 72 1013.5
20260830060937 71 300 1.0 5.0 0.00 0.00 0.00 72 1013.5
20260830060438 71 307 3.0 5.0 0.00 0.00 0.00 73 1013.5
20260830055937 71 316 1.0 4.0 0.00 0.00 0.00 74 1013.5
20260830055437 71 297 2.0 4.0 0.00 0.00 0.00 74 1013.5
20260830054938 72 284 1.0 5.0 0.00 0.00 0.00 71 1013.5
20260830054437 71 304 2.0 4.0 0.00 0.00 0.00 71 1013.5
20260830053937 71 307 2.0 5.0 0.00 0.00 0.00 72 1013.5
20260830053437 72 317 2.0 4.0 0.00 0.00 0.00 73 1013.5
20260830052938 72 301 1.0 4.0 0.00 0.00 0.00 73 1013.5
20260830052437 72 288 1.0 4.0 0.00 0.00 0.00 73 1013.5
20260830051937 72 311 2.0 5.0 0.00 0.00 0.00 73 1013.5
20260830051437 72 319 3.0 4.0 0.00 0.00 0.00 73 1013.5
20260830050937 72 315 2.0 6.0 0.00 0.00 0.00 73 1013.5
20260830050437 72 302 1.0 5.0 0.00 0.00 0.00 73 1013.5
20260830045938 72 311 3.0 6.0 0.00 0.00 0.00 73 1013.5
20260830045437 72 305 1.0 5.0 0.00 0.00 0.00 73 1013.5
20260830044937 72 314 3.0 5.0 0.00 0.00 0.00 73 1013.5
20260830044438 73 309 2.0 5.0 0.00 0.00 0.00 73 1013.5
20260830043937 73 287 1.0 4.0 0.00 0.00 0.00 73 1013.5
20260830043442 73 309 1.0 5.0 0.00 0.00 0.00 72 1013.5
20260830042937 73 309 2.0 5.0 0.00 0.00 0.00 72 1013.5
20260830042437 73 310 2.0 4.0 0.00 0.00 0.00 72 1013.5
20260830041938 73 317 2.0 4.0 0.00 0.00 0.00 72 1013.5
20260830041437 74 312 2.0 5.0 0.00 0.00 0.00 71 1013.5
20260830040937 74 314 3.0 6.0 0.00 0.00 0.00 70 1013.5
20260830040438 74 318 4.0 6.0 0.00 0.00 0.00 69 1013.5
20260830035937 74 313 3.0 6.0 0.00 0.00 0.00 69 1013.5
20260830035437 74 314 3.0 5.0 0.00 0.00 0.00 69 1013.5
20260830034937 75 296 1.0 5.0 0.00 0.00 0.00 68 1013.5
20260830034439 75 313 3.0 4.0 0.00 0.00 0.00 67 1013.5
20260830033938 76 299 2.0 4.0 0.00 0.00 0.00 66 1013.5
20260830033437 76 303 1.0 6.0 0.00 0.00 0.00 65 1013.5
20260830032937 76 303 1.0 5.0 0.00 0.00 0.00 65 1013.5
20260830032437 76 308 2.0 6.0 0.00 0.00 0.00 64 1013.5
20260830031937 76 317 2.0 6.0 0.00 0.00 0.00 63 1013.5
20260830031437 76 318 4.0 6.0 0.00 0.00 0.00 63 1013.5
20260830030937 76 301 1.0 5.0 0.00 0.00 0.00 63 1013.5
20260830030437 77 307 2.0 5.0 0.00 0.00 0.00 62 1013.5
20260830025937 77 312 2.0 5.0 0.00 0.00 0.00 62 1013.5
20260830025437 77 309 3.0 7.0 0.00 0.00 0.00 61 1013.5
20260830024937 77 312 4.0 7.0 0.00 0.00 0.00 61 1013.5
20260830024437 78 316 5.0 7.0 0.00 0.00 0.00 60 1013.5
20260830023939 78 308 3.0 6.0 0.00 0.00 0.00 59 1013.5
20260830023437 79 309 2.0 7.0 0.00 0.00 0.00 57 1013.5
20260830022938 80 305 2.0 6.0 0.00 0.00 0.00 56 1013.5
20260830022437 80 314 2.0 8.0 0.00 0.00 0.00 56 1013.5